Location: ????????
(55.7667°N, 37.4833°E)
Time: 11:34:15
(UTC+00:00)

ATLAS 3B R/B - Pass Details

Date: 19 May 2025
Orbit: 935 x 1258 km, 63.8° (Epoch: 13 June)

Event Time Altitude Azimuth Distance (km) Brightness Sun altitude
Rises 23:18:22 0° 256° (WSW) 4,083 5.4 -10.6°
Reaches altitude 10° 23:21:09 10° 261° (W) 3,156 4.8 -10.5°
Maximum altitude 23:28:42 57° 339° (NNW) 1,451 3.7 -10.0°
Drops below altitude 10° 23:36:29 10° 58° (ENE) 3,249 6.3 -9.4°
Sets 23:39:23 0° 62° (ENE) 4,210 6.9 -9.2°
